Location: Newark
(44.3681°N, 100.3364°W)
Time: 05:47:39
(UTC+00:00)

S-56A Canister/Altair - Pass Details

Date: 03 March 2020
Orbit: 634 x 2498 km, 38.9° (Epoch: 07 April)

Event Time Altitude Azimuth Distance (km) Brightness Sun altitude
Rises 17:50:12 0° 269° (W) 5,431 11.7 37.3°
Reaches altitude 10° 17:53:27 10° 267° (W) 4,624 11.5 37.4°
Maximum altitude 18:06:58 69° 189° (S) 2,594 11.4 38.1°
Drops below altitude 10° 18:21:49 10° 111° (ESE) 5,031 12.1 38.7°
Sets 18:25:31 0° 109° (ESE) 5,916 12.3 38.8°
